Weather History for KRAP - January, 2012

Change the Weather History Date:

Saturday, January 21, 2012

  Actual Average Record
Temperature  
Mean Temperature 33 °F 25 °F  
Max Temperature 56 °F 37 °F 64 °F (1989)
Min Temperature 9 °F 13 °F -25 °F (1949)
Degree Days  
Heating Degree Days 32 40  
Month to date heating degree days 776 842  
Since 1 July heating degree days 3458 3758  
Cooling Degree Days 0 0  
Month to date cooling degree days 0 0  
Year to date cooling degree days 0 0  
Moisture  
Dew Point 24 °F    
Average Humidity 61    
Maximum Humidity 83    
Minimum Humidity 38    
Precipitation  
Precipitation 0.00 in 0.01 in 0.28 in (1986)
Month to date precipitation 0.04 0.21  
Year to date precipitation 0.04 0.21  
Snow  
Snow 0.00 in 0.20 in 3.30 in (1986)
Month to date snowfall 1.2 3.0  
Since 1 July snowfall 18.8 16.2  
Snow Depth 0.00 in    
Sea Level Pressure  
Sea Level Pressure 29.48 in    
Wind  
Wind Speed 8 mph (South)    
Max Wind Speed 29 mph    
Max Gust Speed 37 mph    
Visibility 10 miles    
Events      
T = Trace of Precipitation, MM = Missing Value Source: NWS Daily Summary

Daily Weather History Graph

Daily Weather History Graph

Search for Another Location

Airport or City:

Trip Planner

Search our weather history database for the weather conditions in past years. The results will help you decide how hot, cold, wet, or windy it might be!

Date:

Astronomy

Jan. 21, 2012 Rise Set
Actual Time 7:20 AM MST 4:46 PM MST
Civil Twilight 6:48 AM MST 5:18 PM MST
Nautical Twilight 6:13 AM MST 5:54 PM MST
Astronomical Twilight 5:39 AM MST 6:28 PM MST
Moon 5:54 AM MST (1/21) 3:24 PM MST (1/21)
Length of Visible Light 10h 29m
Length of Day
9h 26m
Waning Crescent, 3% of the Moon is Illuminated
Jan 21
Waning Crescent
Jan 23
New
Jan 30
First Quarter
Feb 7
Full
Feb 14
Last Quarter

Hourly Weather History & Observations

Time (MST) Temp. Windchill Dew Point Humidity Pressure Visibility Wind Dir Wind Speed Gust Speed Precip Events Conditions
12:52 AM 10.0 °F -0.9 °F 5.0 °F 80% 29.93 in - SE 6.9 mph - N/A   Clear
1:52 AM 10.9 °F -2.6 °F 6.1 °F 81% 29.88 in - ESE 10.4 mph - N/A   Clear
2:52 AM 14.0 °F -0.2 °F 9.0 °F 80% 29.82 in - SSE 12.7 mph - N/A   Clear
3:52 AM 16.0 °F 4.4 °F 10.9 °F 81% 29.76 in - SSE 9.2 mph - N/A   Clear
4:52 AM 17.1 °F 8.7 °F 10.9 °F 77% 29.73 in - SSE 5.8 mph - N/A   Clear
5:52 AM 19.0 °F 9.0 °F 12.9 °F 77% 29.67 in 10.0 mi SSE 8.1 mph - N/A   Clear
6:52 AM 19.0 °F 11.1 °F 12.9 °F 77% 29.67 in 10.0 mi SSE 5.8 mph - N/A   Clear
7:52 AM 21.0 °F 10.6 °F 16.0 °F 81% 29.63 in 10.0 mi SE 9.2 mph - N/A   Clear
8:52 AM 27.0 °F 18.0 °F 19.9 °F 75% 29.59 in 10.0 mi SE 9.2 mph - N/A   Clear
9:52 AM 30.9 °F 21.7 °F 21.9 °F 69% 29.55 in 10.0 mi ESE 11.5 mph - N/A   Clear
10:52 AM 48.0 °F - 28.0 °F 46% 29.45 in 10.0 mi South 10.4 mph 19.6 mph N/A   Clear
11:52 AM 54.0 °F - 30.9 °F 41% 29.41 in 10.0 mi SW 12.7 mph 20.7 mph N/A   Clear
12:11 PM 55.4 °F - 32.0 °F 41% 29.32 in - WSW 13.8 mph 26.5 mph N/A   Clear
12:27 PM 55.4 °F - 30.2 °F 38% 29.31 in 10.0 mi WSW 17.3 mph 23.0 mph N/A   Clear
12:52 PM 54.0 °F - 30.0 °F 40% 29.36 in 10.0 mi SSE 5.8 mph - N/A   Clear
1:52 PM 52.0 °F - 28.0 °F 40% 29.34 in 10.0 mi South 15.0 mph - N/A   Clear
2:52 PM 53.1 °F - 28.0 °F 38% 29.33 in 10.0 mi South 13.8 mph - N/A   Clear
3:52 PM 54.0 °F - 28.9 °F 38% 29.31 in 10.0 mi SW 15.0 mph 24.2 mph N/A   Partly Cloudy
4:52 PM 51.1 °F - 32.0 °F 48% 29.34 in 10.0 mi WSW 17.3 mph - N/A   Overcast
5:52 PM 46.9 °F - 33.1 °F 59% 29.33 in 10.0 mi SW 4.6 mph - N/A   Overcast
6:52 PM 42.1 °F - 32.0 °F 67% 29.33 in 10.0 mi Calm Calm - N/A   Scattered Clouds
7:52 PM 37.0 °F 33.3 °F 30.0 °F 76% 29.33 in 10.0 mi SSE 4.6 mph - N/A   Overcast
8:52 PM 37.9 °F - 30.9 °F 76% 29.31 in 10.0 mi Calm Calm - N/A   Overcast
9:52 PM 39.9 °F - 33.1 °F 77% 29.28 in 10.0 mi Calm Calm - N/A   Overcast
10:52 PM 34.0 °F - 28.9 °F 82% 29.26 in 10.0 mi Calm Calm - N/A   Partly Cloudy
11:52 PM 39.9 °F 32.9 °F 33.1 °F 77% 29.22 in 10.0 mi NNW 11.5 mph - N/A   Partly Cloudy